Regional Weather Roundup
Issued by NWS

Home | Current Version | Previous Version | Text Only | Print | Product List | Glossary Off
Versions: 1 2 3 4 5 6 7 8 9 10 11 12 13 14 15 16 17 18 19 20 21 22 23 24 25 26 27 28 29 30 31 32 33 34 35 36 37 38 39 40 41 42 43 44 45 46 47 48 49 50

000
ASUS43 KMPX 031010
RWRMN
WEATHER ROUNDUP FOR MINNESOTA
NATIONAL WEATHER SERVICE TWIN CITIES/CHANHASSEN MN
400 AM CST SAT DEC 03 2016


NOTE: "FAIR" INDICATES FEW OR NO CLOUDS BELOW 12,000 FEET WITH NO
SIGNIFICANT WEATHER AND/OR OBSTRUCTIONS TO VISIBILITY. N/A MEANS
CURRENT SKY AND/OR WEATHER CONDITIONS ARE NOT AVAILABLE.

MNZ060>063-068>070-031100-
   Twin Cities Metro

CITY           SKY/WX    TMP DP  RH WIND       PRES   REMARKS
BLAINE         CLOUDY    30  27  86 W6        30.29S WCI  24
LAKEVILLE      CLOUDY    27  21  80 CALM      30.30S
SOUTH ST PAUL  CLOUDY    30  23  76 W8        30.30S WCI  22
LAKE ELMO      CLOUDY    30  28  93 SW6       30.30S WCI  24
$$
MNZ001>005-007-008-013>017-022>024-027-028-031100-
   Northwest Minnesota

CITY           SKY/WX    TMP DP  RH WIND       PRES   REMARKS
BEMIDJI        CLOUDY    25  18  76 SW5       30.23F WCI  19
HALLOCK        CLOUDY    30  25  80 S12       30.19F WCI  21
ROSEAU         CLOUDY    28  23  80 S6        30.21S WCI  22
WARROAD        CLOUDY    25  21  86 CALM      30.21F
THIEF RVR FALL CLOUDY    26  21  81 S10       30.23F WCI  16
CROOKSTON      CLOUDY    27  21  80 SW13      30.24F WCI  16
FOSSTON        CLOUDY    23  19  86 SW9       30.24S WCI  13
DETROIT LAKES  CLOUDY    27  21  80 S7        30.25F WCI  19
MOORHEAD       CLOUDY    25  18  74 S8        30.27F WCI  16
$$
MNZ006-009>011-018-025>026-031100-
   North Central Minnesota

CITY           SKY/WX    TMP DP  RH WIND       PRES   REMARKS
FLAG ISLAND    CLOUDY    23  19  86 CALM      30.20F
INTL FALLS     CLOUDY    24  21  88 CALM      30.23F
WASKISH        CLOUDY    25  21  86 CALM      30.23F
BIG FORK       CLOUDY    25  19  80 SW3       30.23F
LONGVILLE      CLOUDY    25  19  80 CALM      30.25S
GRAND RAPIDS   CLOUDY    24  20  84 W3        30.26F
CRANE LAKE     CLOUDY    21  19  93 CALM      30.27S
ORR            CLOUDY    21  19  93 CALM      30.21S
COOK           CLOUDY    23  21  93 CALM      30.24F
$$
MNZ012-019>021-037-031100-
   Northeast Minnesota

CITY           SKY/WX    TMP DP  RH WIND       PRES   REMARKS
DULUTH         CLOUDY    27  23  85 W6        30.23F WCI  20
ELY            CLOUDY    23  21  93 CALM      30.23S
HIBBING        CLOUDY    23  19  86 W3        30.24S
EVELETH        CLOUDY    25  23  93 W5        30.24F WCI  19
DULUTH HARBOR  CLOUDY    30  27  86 W9        30.28F WCI  22
TWO HARBORS    MOCLDY    30  25  80 CALM      30.23S
SILVER BAY     CLOUDY    28  25  86 CALM      30.22F
GRAND MARAIS     N/A     31  24  75 NW5       30.25S WCI  26
G MARAIS ARPRT CLOUDY    23  18  80 CALM      30.20S
$$
MNZ029>031-032-039>041-046>048-054>057-064-031100-
   West Central Minnesota

CITY           SKY/WX    TMP DP  RH WIND       PRES   REMARKS
FERGUS FALLS   CLOUDY    25  19  80 SW6       30.31F WCI  18
WHEATON        CLOUDY   N/A N/A N/A SW6       30.29F
MORRIS         CLOUDY    27  19  74 CALM      30.27F
ELBOW LAKE     CLOUDY    24  19  80 SW7       30.28S WCI  16
WADENA         CLOUDY    25  18  74 SW6       30.25F WCI  18
GLENWOOD       CLOUDY    25  19  80 CALM      30.27S
APPLETON       CLOUDY    28  19  69 CALM      30.28F
BENSON         CLOUDY    27  18  69 W5        30.29R WCI  21
ORTONVILLE     CLOUDY    27  18  69 CALM      30.26F
MADISON        PTCLDY    28  21  74 CALM      30.28S
WILLMAR        CLOUDY    28  21  74 CALM      30.29F
$$
MNZ033>034-036-042>043-049>051-058-059-031100-
   Central Minnesota

CITY           SKY/WX    TMP DP  RH WIND       PRES   REMARKS
PAYNESVILLE    CLOUDY    26  20  78 W5        30.29S WCI  20
AITKIN         CLOUDY    27  21  80 CALM      30.25S
PINE RIVER     CLOUDY    25  19  80 CALM      30.28S
STAPLES        CLOUDY    23  18  80 W3        30.26S
LONG PRAIRIE   CLOUDY    25  19  80 CALM      30.27S
LITTLE FALLS   CLOUDY    28  21  74 CALM      30.27S
LITCHFIELD     CLOUDY    28  21  74 W5        30.30S WCI  23
BUFFALO        CLOUDY    28  22  76 CALM      30.30F
MAPLE LAKE     CLOUDY    29  24  80 W3        30.30S
$$
MNZ037-044-045-052-053-031100-
   East Central Minnesota

CITY           SKY/WX    TMP DP  RH WIND       PRES   REMARKS
PRINCETON      CLOUDY    28  25  86 CALM      30.28F
MORA           CLOUDY    28  23  80 CALM      30.28F
CAMBRIDGE      CLOUDY    30  21  69 CALM      30.26F
RUSH CITY      CLOUDY    28  25  86 CALM      30.28S
MOOSE LAKE     CLOUDY    28  23  80 CALM      30.24F
HINCKLEY       CLOUDY    30  27  86 CALM      30.27F
CLOQUET        CLOUDY    27  21  80 W3        30.24S
MCGREGOR       CLOUDY    28  23  80 W3        30.26S
$$
MNZ071>073-080-081-089-090-097-098-031100-
   Southwest Minnesota

CITY           SKY/WX    TMP DP  RH WIND       PRES   REMARKS
MONTEVIDEO     CLOUDY    27  27 100 W3        30.30F
GRANITE FALLS  CLOUDY    29  20  70 CALM      30.32S
CANBY          CLOUDY    27  20  75 CALM      30.29S
MARSHALL       CLEAR     23  17  78 W5        30.31R WCI  17
OLIVIA         CLOUDY    30  23  74 CALM      30.29S
PIPESTONE      MOCLDY    23  21  93 S3        30.28S
WINDOM         CLOUDY    27  19  74 CALM      30.31R
WORTHINGTON    CLOUDY    25  22  88 SW3       30.30S
JACKSON        CLOUDY    27  19  74 W7        30.31F WCI  19
TRACY          PTCLDY    24  20  83 SW7       30.30S WCI  16
SLAYTON        CLOUDY    25  20  81 CALM      30.30R
$$
MNZ065>067-074>077-082>085-091>093-031100-
   South Central Minnesota

CITY           SKY/WX    TMP DP  RH WIND       PRES   REMARKS
MANKATO        CLOUDY    28  23  81 W3        30.32S
NEW ULM        CLOUDY    28  19  69 W6        30.31S WCI  22
ST JAMES       CLOUDY    28  21  74 W8        30.33S WCI  20
FAIRMONT       CLOUDY    29  20  69 W10       30.32S WCI  20
GLENCOE        CLOUDY    29  24  79 CALM      30.30R
FARIBAULT      CLOUDY    28  21  74 CALM      30.31S
OWATONNA       CLOUDY    28  21  74 CALM      30.30S
WASECA         FLURRIES  30  27  86 CALM      30.32S
ALBERT LEA     CLOUDY    34  25  69 W6        30.31R WCI  29
$$
MNZ078>079-086>088-094>096-031100-
   Southeast Minnesota

CITY           SKY/WX    TMP DP  RH WIND       PRES   REMARKS
ROCHESTER      CLOUDY    28  22  78 W5        30.30  WCI  23
RED WING       CLOUDY    30  21  69 W5        30.30S WCI  25
STANTON        CLOUDY    30  21  67 CALM      30.30S
DODGE CENTER   MIX PCPN  27  21  80 CALM      30.29F
WINONA         CLOUDY    32  23  69 W6        30.34R WCI  26
AUSTIN         CLOUDY    30  21  69 SW5       30.30S WCI  25
PRESTON        CLOUDY    28  22  78 W7        30.31S WCI  20
$$
ABBREVIATIONS USED IN REMARKS
   TC - TEMPERATURES IN CELSIUS
  WCI - WIND CHILL INDEX
   HX - HEAT INDEX
  VSB - VISIBILITY
$$



USA.gov is the U.S. government's official web portal to all federal, state and local government web resources and services.